| time (UTC) | temp C | wind direction | speed KPH | gust KPH | rain 1hr cm | rain 24hr cm | rain mn cm | humidity % | barometer mb |
| 20260509064547 | 10 | 182 | 8.0 | 16.1 | 0.00 | 0.08 | 0.00 | 91 | 1006.5 |
| 20260509063103 | 11 | 194 | 6.4 | 12.9 | 0.00 | 0.08 | 0.00 | 91 | 1006.7 |
| 20260509061612 | 11 | 165 | 4.8 | 11.3 | 0.00 | 0.08 | 0.00 | 91 | 1006.8 |
| 20260509060056 | 11 | 178 | 6.4 | 11.3 | 0.00 | 0.08 | 0.00 | 91 | 1007.1 |
| 20260509054543 | 11 | 199 | 4.8 | 8.0 | 0.00 | 0.08 | 0.00 | 91 | 1007.1 |
| 20260509053042 | 11 | 172 | 3.2 | 11.3 | 0.00 | 0.08 | 0.00 | 90 | 1006.9 |
| 20260509051545 | 11 | 190 | 6.4 | 11.3 | 0.00 | 0.08 | 0.00 | 90 | 1007.2 |
| 20260509050043 | 11 | 188 | 4.8 | 11.3 | 0.00 | 0.08 | 0.00 | 90 | 1007.2 |
| 20260509044547 | 11 | 155 | 4.8 | 9.7 | 0.00 | 0.08 | 0.00 | 90 | 1007.2 |
| 20260509043044 | 11 | 175 | 4.8 | 8.0 | 0.00 | 0.08 | 0.00 | 90 | 1007.3 |
| 20260509041552 | 12 | 187 | 4.8 | 9.7 | 0.00 | 0.08 | 0.00 | 89 | 1007.5 |
| 20260509040043 | 12 | 180 | 3.2 | 8.0 | 0.00 | 0.08 | 0.00 | 89 | 1007.5 |
| 20260509034543 | 12 | 186 | 4.8 | 9.7 | 0.00 | 0.08 | 0.08 | 88 | 1007.6 |
| 20260509033046 | 12 | 153 | 3.2 | 8.0 | 0.00 | 0.08 | 0.08 | 88 | 1007.8 |
| 20260509031549 | 12 | 182 | 4.8 | 11.3 | 0.00 | 0.08 | 0.08 | 88 | 1007.8 |
| 20260509030053 | 12 | 178 | 4.8 | 11.3 | 0.00 | 0.08 | 0.08 | 87 | 1007.9 |
| 20260509024550 | 13 | 194 | 4.8 | 9.7 | 0.00 | 0.13 | 0.08 | 86 | 1008.0 |
| 20260509023049 | 13 | 200 | 6.4 | 11.3 | 0.00 | 0.13 | 0.08 | 86 | 1008.0 |
| 20260509021550 | 13 | 189 | 6.4 | 11.3 | 0.00 | 0.13 | 0.08 | 87 | 1008.0 |
| 20260509020051 | 13 | 195 | 6.4 | 14.5 | 0.00 | 0.13 | 0.08 | 86 | 1008.0 |
| 20260509014551 | 13 | 190 | 8.0 | 9.7 | 0.00 | 0.46 | 0.08 | 86 | 1007.9 |
| 20260509013055 | 13 | 200 | 6.4 | 9.7 | 0.00 | 0.46 | 0.08 | 86 | 1007.8 |
| 20260509011548 | 13 | 201 | 4.8 | 9.7 | 0.00 | 0.46 | 0.08 | 85 | 1007.6 |
| 20260509010047 | 13 | 206 | 8.0 | 12.9 | 0.00 | 0.46 | 0.08 | 85 | 1007.5 |
| 20260509004550 | 13 | 196 | 9.7 | 14.5 | 0.00 | 0.46 | 0.08 | 84 | 1007.5 |
| 20260509003047 | 13 | 203 | 4.8 | 11.3 | 0.00 | 0.46 | 0.08 | 83 | 1007.3 |
| 20260509001550 | 14 | 198 | 4.8 | 11.3 | 0.00 | 0.46 | 0.08 | 83 | 1007.3 |
| 20260509000052 | 14 | 208 | 6.4 | 14.5 | 0.03 | 0.46 | 0.08 | 82 | 1007.4 |
| 20260508234551 | 14 | 214 | 6.4 | 14.5 | 0.08 | 0.46 | 0.08 | 82 | 1007.5 |
| 20260508233052 | 13 | 230 | 9.7 | 16.1 | 0.08 | 0.46 | 0.08 | 83 | 1007.5 |
| 20260508231543 | 13 | 264 | 3.2 | 16.1 | 0.08 | 0.46 | 0.08 | 85 | 1007.5 |
| 20260508230050 | 13 | 225 | 11.3 | 17.7 | 0.05 | 0.43 | 0.05 | 83 | 1007.6 |
| 20260508224550 | 15 | 244 | 16.1 | 25.7 | 0.00 | 0.38 | 0.00 | 77 | 1007.6 |
| 20260508223047 | 15 | 217 | 8.0 | 16.1 | 0.00 | 0.38 | 0.00 | 76 | 1007.6 |
| 20260508221543 | 15 | 209 | 11.3 | 16.1 | 0.00 | 0.38 | 0.00 | 74 | 1007.5 |
| 20260508220043 | 15 | 213 | 4.8 | 12.9 | 0.00 | 0.38 | 0.00 | 75 | 1007.6 |
| 20260508214550 | 15 | 188 | 8.0 | 16.1 | 0.00 | 0.38 | 0.00 | 73 | 1007.6 |
| 20260508213054 | 15 | 175 | 9.7 | 16.1 | 0.00 | 0.38 | 0.00 | 74 | 1007.7 |
| 20260508211549 | 15 | 192 | 12.9 | 19.3 | 0.00 | 0.38 | 0.00 | 72 | 1007.8 |
| 20260508210055 | 15 | 204 | 9.7 | 17.7 | 0.00 | 0.38 | 0.00 | 73 | 1007.8 |
| 20260508204556 | 15 | 217 | 9.7 | 19.3 | 0.00 | 0.38 | 0.00 | 73 | 1007.9 |
| 20260508203058 | 15 | 206 | 8.0 | 17.7 | 0.00 | 0.38 | 0.00 | 74 | 1008.0 |
| 20260508201600 | 15 | 191 | 1.6 | 6.4 | 0.00 | 0.38 | 0.00 | 75 | 1008.3 |
| 20260508200045 | 15 | 172 | 1.6 | 14.5 | 0.00 | 0.38 | 0.00 | 76 | 1008.7 |
| 20260508194552 | 15 | 146 | 1.6 | 14.5 | 0.00 | 0.38 | 0.00 | 80 | 1008.9 |
| 20260508193056 | 13 | 194 | 4.8 | 11.3 | 0.00 | 0.38 | 0.00 | 79 | 1009.1 |
| 20260508191550 | 13 | 0 | 3.2 | 17.7 | 0.00 | 0.38 | 0.00 | 81 | 1009.4 |
| 20260508190050 | 13 | 189 | 9.7 | 17.7 | 0.00 | 0.38 | 0.00 | 81 | 1009.7 |
| 20260508184549 | 13 | 188 | 11.3 | 17.7 | 0.00 | 0.38 | 0.00 | 81 | 1010.0 |
| 20260508183044 | 13 | 202 | 9.7 | 16.1 | 0.00 | 0.38 | 0.00 | 80 | 1010.2 |
| 20260508181555 | 13 | 185 | 4.8 | 17.7 | 0.00 | 0.38 | 0.00 | 79 | 1010.3 |
| 20260508180044 | 13 | 207 | 11.3 | 16.1 | 0.00 | 0.38 | 0.00 | 79 | 1010.3 |
| 20260508174604 | 13 | 172 | 8.0 | 19.3 | 0.00 | 0.38 | 0.00 | 81 | 1010.4 |
| 20260508173051 | 13 | 221 | 8.0 | 19.3 | 0.00 | 0.38 | 0.00 | 80 | 1010.7 |
| 20260508171545 | 12 | 200 | 9.7 | 17.7 | 0.00 | 0.38 | 0.00 | 81 | 1011.0 |
| 20260508170046 | 12 | 222 | 6.4 | 17.7 | 0.00 | 0.38 | 0.00 | 82 | 1011.1 |
| 20260508164546 | 12 | 211 | 9.7 | 17.7 | 0.00 | 0.38 | 0.00 | 83 | 1011.2 |
| 20260508163051 | 12 | 222 | 12.9 | 19.3 | 0.00 | 0.38 | 0.00 | 84 | 1011.5 |
| 20260508161548 | 12 | 228 | 9.7 | 17.7 | 0.00 | 0.38 | 0.00 | 85 | 1011.5 |
| 20260508160045 | 12 | 236 | 12.9 | 19.3 | 0.00 | 0.38 | 0.00 | 85 | 1011.7 |
| 20260508154544 | 12 | 236 | 11.3 | 17.7 | 0.00 | 0.38 | 0.00 | 86 | 1011.6 |
| 20260508153042 | 12 | 227 | 11.3 | 19.3 | 0.00 | 0.38 | 0.00 | 85 | 1011.4 |
| 20260508151546 | 12 | 227 | 11.3 | 17.7 | 0.00 | 0.38 | 0.00 | 87 | 1011.4 |
| 20260508150048 | 11 | 215 | 12.9 | 19.3 | 0.00 | 0.38 | 0.00 | 88 | 1011.5 |
| 20260508144546 | 11 | 207 | 12.9 | 17.7 | 0.00 | 0.38 | 0.00 | 89 | 1011.6 |
| 20260508143044 | 10 | 201 | 9.7 | 17.7 | 0.00 | 0.38 | 0.00 | 89 | 1011.7 |
| 20260508141611 | 10 | 208 | 4.8 | 9.7 | 0.00 | 0.38 | 0.00 | 89 | 1011.9 |
| 20260508140043 | 9 | 221 | 6.4 | 9.7 | 0.00 | 0.38 | 0.00 | 89 | 1012.2 |
| 20260508134558 | 9 | 220 | 4.8 | 8.0 | 0.00 | 0.38 | 0.00 | 89 | 1012.2 |
| 20260508133044 | 9 | 224 | 3.2 | 8.0 | 0.00 | 0.38 | 0.00 | 89 | 1012.1 |
| 20260508131553 | 9 | 0 | 1.6 | 6.4 | 0.00 | 0.38 | 0.00 | 90 | 1012.0 |
| 20260508130047 | 8 | 232 | 1.6 | 4.8 | 0.00 | 0.38 | 0.00 | 90 | 1012.0 |
| 20260508124556 | 8 | 205 | 1.6 | 6.4 | 0.00 | 0.38 | 0.00 | 90 | 1011.8 |
| 20260508123052 | 8 | 189 | 1.6 | 8.0 | 0.00 | 0.38 | 0.00 | 90 | 1011.8 |
| 20260508121551 | 8 | 191 | 4.8 | 8.0 | 0.00 | 0.38 | 0.00 | 90 | 1012.0 |
| 20260508120045 | 8 | 0 | 1.6 | 4.8 | 0.00 | 0.38 | 0.00 | 90 | 1011.7 |
| 20260508114543 | 7 | 0 | 0.0 | 3.2 | 0.00 | 0.38 | 0.00 | 90 | 1011.7 |
| 20260508113052 | 7 | 0 | 0.0 | 6.4 | 0.00 | 0.38 | 0.00 | 90 | 1011.6 |
| 20260508111552 | 7 | 201 | 3.2 | 8.0 | 0.00 | 0.38 | 0.00 | 90 | 1011.5 |
| 20260508110053 | 7 | 206 | 4.8 | 9.7 | 0.00 | 0.38 | 0.00 | 90 | 1011.4 |
| 20260508104551 | 7 | 207 | 3.2 | 6.4 | 0.00 | 0.38 | 0.00 | 90 | 1011.4 |
| 20260508103046 | 6 | 209 | 1.6 | 6.4 | 0.00 | 0.38 | 0.00 | 90 | 1011.4 |
| 20260508101542 | 6 | 232 | 3.2 | 6.4 | 0.00 | 0.38 | 0.00 | 90 | 1011.4 |
| 20260508100045 | 7 | 236 | 1.6 | 8.0 | 0.00 | 0.38 | 0.00 | 89 | 1011.3 |
| 20260508094542 | 7 | 222 | 3.2 | 8.0 | 0.00 | 0.38 | 0.00 | 90 | 1011.3 |
| 20260508093047 | 7 | 218 | 4.8 | 9.7 | 0.00 | 0.38 | 0.00 | 90 | 1011.3 |
| 20260508091550 | 7 | 213 | 4.8 | 9.7 | 0.00 | 0.38 | 0.00 | 90 | 1011.4 |
| 20260508084547 | 6 | 205 | 4.8 | 11.3 | 0.00 | 0.38 | 0.00 | 90 | 1011.4 |
| 20260508083059 | 6 | 202 | 6.4 | 11.3 | 0.00 | 0.38 | 0.00 | 91 | 1011.4 |
| 20260508081556 | 6 | 200 | 4.8 | 8.0 | 0.00 | 0.38 | 0.00 | 91 | 1011.5 |
| 20260508080044 | 6 | 210 | 4.8 | 8.0 | 0.00 | 0.38 | 0.00 | 91 | 1011.5 |
| 20260508074551 | 6 | 203 | 3.2 | 6.4 | 0.00 | 0.38 | 0.00 | 90 | 1011.5 |
| 20260508073047 | 6 | 213 | 0.0 | 3.2 | 0.00 | 0.38 | 0.00 | 90 | 1011.4 |
| 20260508071548 | 6 | 0 | 0.0 | 1.6 | 0.00 | 0.38 | 0.00 | 90 | 1011.5 |
| 20260508070047 | 7 | 0 | 0.0 | 4.8 | 0.00 | 0.38 | 0.00 | 90 | 1011.6 |